Current Weather Conditions: station ENFB

sailwx.info

See reports from other nearby stations

no recent reports received from weather station ID ENFB

Tides Pressure Air temp Water temp Dewpoint Dewpoint depression Visibility Wind speed Wind direction Waves Ship positions
date/time (UTC)wind fromknots sea level pressurealtimeterstation pressurevisibilityair tempwater tempwave heightnotes
2017-Mar-26 06:20 270 18 1.3 8.0 Light rain showers. Mist.
2017-Mar-26 05:50 260 18 2.6 8.0
2017-Mar-26 05:20 270 20 1.2 8.0 Light rain showers. Mist.
2017-Mar-26 04:50 270 20 0.8 8.0 Light rain showers. Mist.
2017-Mar-26 04:20 250 14 0.4 8.0 Light rain. Fog.
2017-Mar-26 03:50 260 20 2.5 8.0 Mist.
2017-Mar-26 03:20 260 19 5.4 8.0
2017-Mar-26 02:50 260 21 1.5 8.0 Mist.
2017-Mar-26 02:20 270 21 3.2 8.0
2017-Mar-26 01:50 260 25 5.4 8.0
2017-Mar-26 01:20 260 27 5.4 8.0
2017-Mar-26 00:50 260 24 4.3 8.0
2017-Mar-26 00:20 260 22 1.0 8.0 Light rain showers. Mist.
2017-Mar-25 23:50 250 26 1.9 8.0 Mist.
2017-Mar-25 23:20 260 27 5.4 8.0
2017-Mar-25 22:50 260 24 4.3 8.0
2017-Mar-25 22:20 260 27 5.4 8.0
2017-Mar-25 21:50 260 24 5.4 8.0 Light rain showers.
2017-Mar-25 21:20 260 26 5.4 8.0
2017-Mar-25 20:50 250 28 5.4 8.0
2017-Mar-25 20:20 240 24 4.3 8.0 Light rain showers.
2017-Mar-25 19:50 250 21 2.7 8.0 Light rain.
2017-Mar-25 19:20 250 24 5.4 8.0
2017-Mar-25 18:50 250 24 5.4 8.0
2017-Mar-25 18:20 260 26 5.4 8.0
2017-Mar-25 17:50 260 20 5.4 9.0
2017-Mar-25 17:20 260 25 5.4 9.0
2017-Mar-25 16:50 260 24 5.4 9.0
2017-Mar-25 16:20 260 25 5.4 9.0
2017-Mar-25 15:50 260 22 5.4 9.0
2017-Mar-25 15:20 270 24 5.4 9.0
2017-Mar-25 14:50 270 27 5.4 9.0
2017-Mar-25 14:20 260 24 5.4 9.0
2017-Mar-25 13:50 270 27 5.4 9.0
2017-Mar-25 13:20 260 25 5.4 9.0
2017-Mar-25 12:50 260 25 5.4 9.0
2017-Mar-25 12:20 260 24 5.4 9.0
2017-Mar-25 11:50 260 27 5.4 9.0
2017-Mar-25 11:20 250 21 5.4 9.0
2017-Mar-25 10:50 250 26 5.4 8.0
2017-Mar-25 10:20 230 25 2.7 8.0 Light rain showers.
2017-Mar-25 09:50 240 27 5.4 8.0 Light rain showers.
2017-Mar-25 09:20 240 27 5.4 8.0
2017-Mar-25 08:50 240 27 5.4 8.0 Light rain showers.
2017-Mar-25 08:20 240 27 5.4 8.0
2017-Mar-25 07:50 240 27 5.4 8.0 Light rain.
2017-Mar-25 07:20 240 27 3.2 8.0 Light rain.
2017-Mar-25 06:50 240 27 1.8 8.0 Light rain showers. Mist.
2017-Mar-25 06:20 240 26 2.5 8.0 Light rain showers. Mist.
2017-Mar-25 05:50 240 27 5.4 8.0 Light rain showers.
2017-Mar-25 05:20 240 28 3.8 8.0 Light rain showers.
2017-Mar-25 04:50 230 27 1.5 8.0 Light rain showers. Mist.
2017-Mar-25 04:20 240 25 3.8 8.0 Light rain showers.
2017-Mar-25 03:50 230 22 0.7 8.0 Light rain showers. Mist.
2017-Mar-25 03:20 220 21 3.8 8.0
2017-Mar-25 02:50 220 20 5.4 7.0
2017-Mar-25 02:20 230 17 5.4 7.0
2017-Mar-25 01:50 240 18 5.4 8.0
2017-Mar-25 01:20 240 19 5.4 8.0
2017-Mar-25 00:50 250 19 5.4 8.0
2017-Mar-25 00:20 250 15 5.4 8.0
2017-Mar-24 23:50 250 14 5.4 8.0
2017-Mar-24 23:20 250 15 5.4 8.0
2017-Mar-24 22:50 270 17 5.4 8.0
2017-Mar-24 22:20 270 17 5.4 8.0
2017-Mar-24 21:50 280 20 5.4 8.0
2017-Mar-24 21:20 280 20 5.4 8.0
2017-Mar-24 20:50 280 20 5.4 8.0
2017-Mar-24 20:20 280 22 5.4 8.0
2017-Mar-24 19:50 280 24 5.4 8.0
2017-Mar-24 19:20 280 25 5.4 8.0
2017-Mar-24 18:50 280 22 5.4 8.0
2017-Mar-24 18:20 280 22 5.4 8.0
2017-Mar-24 17:50 280 24 5.4 8.0
2017-Mar-24 17:20 280 21 5.4 8.0
2017-Mar-24 16:50 280 25 5.4 8.0
2017-Mar-24 16:20 280 25 5.4 8.0
2017-Mar-24 15:50 280 25 5.4 8.0
2017-Mar-24 15:20 280 24 5.4 8.0
2017-Mar-24 14:50 280 26 5.4 8.0
2017-Mar-24 14:20 270 27 5.4 8.0
2017-Mar-24 13:50 270 25 5.4 8.0
2017-Mar-24 13:20 270 27 5.4 8.0
2017-Mar-24 12:50 250 32 5.4 8.0 Light rain.
2017-Mar-24 12:20 230 34 2.7 7.0 Light rain.
2017-Mar-24 11:50 230 38 2.2 7.0 Light rain. Mist.
2017-Mar-24 11:20 230 38 2.3 7.0 Light rain. Mist.
2017-Mar-24 10:50 230 36 5.4 7.0 Light rain.
2017-Mar-24 10:20 230 35 5.4 7.0 Light rain showers.
2017-Mar-24 09:50 230 34 4.3 7.0 Light rain showers.
2017-Mar-24 09:20 230 33 2.5 6.0 Light rain. Mist.
2017-Mar-24 08:50 220 29 5.4 6.0 Light rain.
2017-Mar-24 08:20 220 32 2.6 6.0 Light rain showers. Mist.
2017-Mar-24 07:50 220 31 2.7 6.0 Light rain showers.
2017-Mar-24 07:20 220 33 5.4 6.0 Light rain.